Regional Weather Roundup
Issued by NWS

Home | Current Version | Previous Version | Text Only | Print | Product List | Glossary Off
Versions: 1 2 3 4 5 6 7 8 9 10 11 12 13 14 15 16 17 18 19 20 21 22 23 24 25 26 27 28 29 30 31 32 33 34 35 36 37 38 39 40 41 42 43 44 45 46 47 48 49 50

000
ASUS43 KLSX 201807
RWRMO

WEATHER SUMMARY FOR MISSOURI
NATIONAL WEATHER SERVICE SPRINGFIELD MO
100 PM CDT MON OCT 20 2014

NOTE: "FAIR" INDICATES FEW OR NO CLOUDS BELOW 12,000 FEET WITH NO
       SIGNIFICANT WEATHER AND/OR OBSTRUCTIONS TO VISIBILITY.
       CURRENT SKY AND/OR WEATHER CONDITIONS ARE NOT AVAILABLE FOR
       CHILLICOTHE AND FARMINGTON.

MOZ001>031-035>038-043-044-053-054-201900-
...NORTHERN AND WESTERN MISSOURI...

CITY           SKY/WX    TMP DP  RH WIND       PRES   REMARKS
KANSAS CTY INT SUNNY     70  47  43 NE6       30.07F
6HR MIN TEMP:  50; 6HR MAX TEMP:  70;

KANSAS C DTWN  SUNNY     72  48  42 NE7       30.05F
6HR MIN TEMP:  52; 6HR MAX TEMP:  72;

LEE`S SUMMIT   SUNNY     70  48  45 N10       30.06F
6HR MIN TEMP:  51; 6HR MAX TEMP:  70;

ST JOSEPH      SUNNY     69  44  40 CALM      30.07F
6HR MIN TEMP:  39; 6HR MAX TEMP:  70;

CHILLICOTHE      N/A     69  45  41 VRB6      30.05F
6HR MIN TEMP:  47; 6HR MAX TEMP:  70;

KIRKSVILLE     SUNNY     68  45  43 N13       30.03F
6HR MIN TEMP:  49; 6HR MAX TEMP:  68;


$$
MOZ066>068-077>081-088>096-101>105-201900-
...SOUTHWEST MISSOURI...

CITY           SKY/WX    TMP DP  RH WIND       PRES   REMARKS
SPRINGFIELD    SUNNY     69  55  60 MISG      30.05F
6HR MIN TEMP:  56; 6HR MAX TEMP:  69;

JOPLIN         SUNNY     70  58  65 NW8       30.07F
6HR MIN TEMP:  58; 6HR MAX TEMP:  70;


$$
MOZ032>034-039>042-045>050-055>058-069>072-201900-
...CENTRAL MISSOURI...

CITY           SKY/WX    TMP DP  RH WIND       PRES   REMARKS
COLUMBIA       SUNNY     69  49  48 NW8       30.02F
6HR MIN TEMP:  51; 6HR MAX TEMP:  70;

JEFFERSON CITY SUNNY     72  49  44 NW10      30.01F
6HR MIN TEMP:  46; 6HR MAX TEMP:  72;

ROLLA          SUNNY     69  55  60 W12       30.00F
6HR MIN TEMP:  50; 6HR MAX TEMP:  69;

SEDALIA        SUNNY     72  49  44 NW5       30.05F
6HR MIN TEMP:  54; 6HR MAX TEMP:  72;

WHITEMAN AFB   SUNNY     70  49  47 NE8       30.04F
OSAGE BEACH    SUNNY     70  54  56 NW7       30.03F

$$
MOZ051-052-059>065-201900-
...EAST CENTRAL MISSOURI...

CITY           SKY/WX    TMP DP  RH WIND       PRES   REMARKS
ST LOUIS INTL  SUNNY     72  51  47 NW14      29.97F
6HR MIN TEMP:  55; 6HR MAX TEMP:  72;

SPIRIT OF STL  SUNNY     72  50  45 NW8       29.96F
6HR MIN TEMP:  54; 6HR MAX TEMP:  72;

ST CHARLES     SUNNY     69  48  47 W13       29.96F
6HR MIN TEMP:  49; 6HR MAX TEMP:  70;


$$
MOZ072>076-082>087-097>100-106>115-201900-
...SOUTH CENTRAL AND SOUTHEAST MISSOURI...

CITY           SKY/WX    TMP DP  RH WIND       PRES   REMARKS
CAPE GIRARDEAU MOSUNNY   67  53  61 SW8       29.99F
6HR MIN TEMP:  50; 6HR MAX TEMP:  68;

FARMINGTON     SUNNY     72  54  53 NW10      30.00F
6HR MIN TEMP:  50; 6HR MAX TEMP:  72;

POPLAR BLUFF   MOSUNNY   68  52  56 S3        30.00F
6HR MIN TEMP:  51; 6HR MAX TEMP:  69; 6HR PCP: TRACE;

WEST PLAINS    PTSUNNY  N/A N/A N/A W10       30.05F
6HR MIN TEMP:  53; 6HR MAX TEMP:  70;


$$


USA.gov is the U.S. government's official web portal to all federal, state and local government web resources and services.